Station Historical Data
Daily Summary for June 3, 2017 Units:  English    Metric   Both
Next Day »
Daily Weekly Monthly Yearly Custom
  High: Low: Average:
Temperature: 78.8 °F 62.6 °F 69.2 °F
Dew Point: 58.0 °F 47.6 °F 51.6 °F
Humidity: 66% 38% 54%
Wind Speed: 12.0mph 0.0mph 2.6mph
Wind Gust: 18.0mph - -
Wind- - SE
Pressure: 29.91 in 29.86 in -
Precipitation: 0.00 in    
Historical Graphs
 
 
Tabular Data for June 3, 2017
Time Temperature Dew Point Pressure Wind Wind Speed Wind Gust Humidity Rainfall Rate (Hourly) solar Conditions
00:03 64.4 °F 52.0 °F 29.91 in SE 4.0 mph 8.0 mph 64% 0.00 in 0.00 W/m2
00:08 64.4 °F 52.0 °F 29.91 in ESE 1.0 mph 8.0 mph 64% 0.00 in 0.00 W/m2
00:13 64.4 °F 52.0 °F 29.91 in ESE 5.0 mph 8.0 mph 64% 0.00 in 0.00 W/m2
00:18 64.3 °F 52.3 °F 29.91 in Calm   6.0 mph 65% 0.00 in 0.00 W/m2
00:23 64.3 °F 51.9 °F 29.91 in Calm   8.0 mph 64% 0.00 in 0.00 W/m2
00:28 64.3 °F 51.9 °F 29.91 in ESE 1.0 mph 8.0 mph 64% 0.00 in 0.00 W/m2
00:33 64.2 °F 51.8 °F 29.90 in Calm   7.0 mph 64% 0.00 in 0.00 W/m2
00:38 64.2 °F 51.8 °F 29.90 in ESE 5.0 mph 8.0 mph 64% 0.00 in 0.00 W/m2
00:43 64.2 °F 51.8 °F 29.90 in ESE 6.0 mph 7.0 mph 64% 0.00 in 0.00 W/m2
00:49 64.1 °F 51.7 °F 29.90 in ESE 5.0 mph 9.0 mph 64% 0.00 in 0.00 W/m2
00:53 64.1 °F 51.3 °F 29.90 in ESE 5.0 mph 9.0 mph 63% 0.00 in 0.00 W/m2
00:58 64.1 °F 51.3 °F 29.90 in ESE 2.0 mph 7.0 mph 63% 0.00 in 0.00 W/m2
01:03 64.0 °F 51.2 °F 29.90 in ESE 4.0 mph 8.0 mph 63% 0.00 in 0.00 W/m2
01:09 64.0 °F 51.6 °F 29.90 in ESE 4.0 mph 12.0 mph 64% 0.00 in 0.00 W/m2
01:13 63.9 °F 51.5 °F 29.90 in East 6.0 mph 12.0 mph 64% 0.00 in 0.00 W/m2
01:19 63.9 °F 51.5 °F 29.90 in East 6.0 mph 12.0 mph 64% 0.00 in 0.00 W/m2
01:24 63.8 °F 51.4 °F 29.90 in ESE 7.0 mph 12.0 mph 64% 0.00 in 0.00 W/m2
01:29 63.8 °F 51.4 °F 29.90 in ESE 2.0 mph 13.0 mph 64% 0.00 in 0.00 W/m2
01:34 63.7 °F 51.3 °F 29.89 in Calm   12.0 mph 64% 0.00 in 0.00 W/m2
01:39 63.6 °F 51.2 °F 29.89 in East 2.0 mph 11.0 mph 64% 0.00 in 0.00 W/m2
01:44 63.7 °F 51.3 °F 29.89 in Calm   8.0 mph 64% 0.00 in 0.00 W/m2
01:49 63.6 °F 51.6 °F 29.89 in East 4.0 mph 11.0 mph 65% 0.00 in 0.00 W/m2
01:54 63.6 °F 51.2 °F 29.89 in East 1.0 mph 12.0 mph 64% 0.00 in 0.00 W/m2
01:59 63.6 °F 51.2 °F 29.89 in East 6.0 mph 11.0 mph 64% 0.00 in 0.00 W/m2
02:04 63.5 °F 51.5 °F 29.88 in East 2.0 mph 11.0 mph 65% 0.00 in 0.00 W/m2
02:09 63.5 °F 51.1 °F 29.88 in East 6.0 mph 9.0 mph 64% 0.00 in 0.00 W/m2
02:14 63.4 °F 50.6 °F 29.88 in ESE 2.0 mph 13.0 mph 63% 0.00 in 0.00 W/m2
02:19 63.4 °F 50.6 °F 29.88 in ESE 7.0 mph 12.0 mph 63% 0.00 in 0.00 W/m2
02:24 63.3 °F 50.5 °F 29.88 in ESE 7.0 mph 12.0 mph 63% 0.00 in 0.00 W/m2
02:29 63.2 °F 50.4 °F 29.88 in ESE 5.0 mph 9.0 mph 63% 0.00 in 0.00 W/m2
02:34 63.2 °F 50.4 °F 29.88 in East 5.0 mph 13.0 mph 63% 0.00 in 0.00 W/m2
02:39 63.1 °F 50.7 °F 29.88 in ESE 2.0 mph 12.0 mph 64% 0.00 in 0.00 W/m2
02:44 63.1 °F 50.7 °F 29.88 in ESE 2.0 mph 13.0 mph 64% 0.00 in 0.00 W/m2
02:49 63.1 °F 50.7 °F 29.88 in East 7.0 mph 11.0 mph 64% 0.00 in 0.00 W/m2
02:54 63.1 °F 50.3 °F 29.88 in East 2.0 mph 9.0 mph 63% 0.00 in 0.00 W/m2
02:59 63.1 °F 50.3 °F 29.88 in ESE 6.0 mph 11.0 mph 63% 0.00 in 0.00 W/m2
03:04 63.1 °F 50.7 °F 29.87 in East 7.0 mph 12.0 mph 64% 0.00 in 0.00 W/m2
03:09 63.1 °F 50.3 °F 29.87 in East 6.0 mph 11.0 mph 63% 0.00 in 0.00 W/m2
03:14 63.0 °F 50.2 °F 29.87 in East 5.0 mph 12.0 mph 63% 0.00 in 0.00 W/m2
03:19 63.1 °F 50.3 °F 29.87 in East 5.0 mph 12.0 mph 63% 0.00 in 0.00 W/m2
03:24 63.1 °F 50.3 °F 29.87 in East 8.0 mph 13.0 mph 63% 0.00 in 0.00 W/m2
03:29 63.1 °F 50.3 °F 29.87 in ESE 1.0 mph 13.0 mph 63% 0.00 in 0.00 W/m2
03:34 63.2 °F 50.4 °F 29.87 in ESE 12.0 mph 12.0 mph 63% 0.00 in 0.00 W/m2
03:39 63.2 °F 50.4 °F 29.87 in East 5.0 mph 12.0 mph 63% 0.00 in 0.00 W/m2
03:44 63.2 °F 50.4 °F 29.87 in East 4.0 mph 13.0 mph 63% 0.00 in 0.00 W/m2
03:49 63.2 °F 50.0 °F 29.87 in ESE 9.0 mph 14.0 mph 62% 0.00 in 0.00 W/m2
03:54 63.2 °F 50.0 °F 29.87 in East 2.0 mph 12.0 mph 62% 0.00 in 0.00 W/m2
03:59 63.1 °F 49.9 °F 29.87 in ESE 4.0 mph 18.0 mph 62% 0.00 in 0.00 W/m2
04:04 63.1 °F 49.5 °F 29.87 in ESE 4.0 mph 12.0 mph 61% 0.00 in 0.00 W/m2
04:10 63.1 °F 49.5 °F 29.87 in Calm   12.0 mph 61% 0.00 in 0.00 W/m2
04:15 63.1 °F 49.0 °F 29.87 in ESE 9.0 mph 12.0 mph 60% 0.00 in 0.00 W/m2
04:20 63.0 °F 48.9 °F 29.87 in East 1.0 mph 13.0 mph 60% 0.00 in 0.00 W/m2
04:25 63.0 °F 48.9 °F 29.87 in East 6.0 mph 11.0 mph 60% 0.00 in 0.00 W/m2
04:30 62.9 °F 48.8 °F 29.87 in East 2.0 mph 7.0 mph 60% 0.00 in 0.00 W/m2
04:35 62.9 °F 48.8 °F 29.87 in ESE 6.0 mph 11.0 mph 60% 0.00 in 0.00 W/m2
04:40 62.9 °F 48.8 °F 29.88 in ESE 5.0 mph 9.0 mph 60% 0.00 in 0.00 W/m2
04:45 62.8 °F 48.7 °F 29.88 in Calm   12.0 mph 60% 0.00 in 0.00 W/m2
04:50 62.8 °F 49.2 °F 29.88 in East 7.0 mph 13.0 mph 61% 0.00 in 0.00 W/m2
04:55 62.7 °F 48.6 °F 29.88 in ESE 2.0 mph 11.0 mph 60% 0.00 in 0.00 W/m2
05:00 62.7 °F 48.6 °F 29.88 in ESE 4.0 mph 13.0 mph 60% 0.00 in 0.00 W/m2
05:05 62.7 °F 48.6 °F 29.88 in ESE 5.0 mph 11.0 mph 60% 0.00 in 0.00 W/m2
05:10 62.6 °F 49.0 °F 29.88 in ESE 1.0 mph 11.0 mph 61% 0.00 in 0.00 W/m2
05:15 62.6 °F 48.5 °F 29.88 in ESE 4.0 mph 9.0 mph 60% 0.00 in 0.00 W/m2
05:20 62.6 °F 48.5 °F 29.88 in East 6.0 mph 9.0 mph 60% 0.00 in 0.00 W/m2
05:25 62.6 °F 48.1 °F 29.89 in East 5.0 mph 8.0 mph 59% 0.00 in 0.00 W/m2
05:30 62.6 °F 48.1 °F 29.89 in East 6.0 mph 11.0 mph 59% 0.00 in 0.00 W/m2
05:35 62.6 °F 48.5 °F 29.88 in East 2.0 mph 11.0 mph 60% 0.00 in 0.00 W/m2
05:40 62.6 °F 48.1 °F 29.89 in East 2.0 mph 8.0 mph 59% 0.00 in 0.00 W/m2
05:45 62.6 °F 48.1 °F 29.89 in East 5.0 mph 11.0 mph 59% 0.00 in 7.00 W/m2
05:50 62.6 °F 48.5 °F 29.89 in East 4.0 mph 11.0 mph 60% 0.00 in 12.00 W/m2
05:55 62.6 °F 47.6 °F 29.89 in East 5.0 mph 11.0 mph 58% 0.00 in 16.00 W/m2
06:00 62.6 °F 47.6 °F 29.89 in East 4.0 mph 9.0 mph 58% 0.00 in 19.00 W/m2
06:05 62.6 °F 48.1 °F 29.89 in East 1.0 mph 11.0 mph 59% 0.00 in 21.00 W/m2
06:10 62.6 °F 48.1 °F 29.89 in East 6.0 mph 11.0 mph 59% 0.00 in 28.00 W/m2
06:15 62.6 °F 48.1 °F 29.89 in East 5.0 mph 12.0 mph 59% 0.00 in 35.00 W/m2
06:20 62.6 °F 48.1 °F 29.90 in East 1.0 mph 11.0 mph 59% 0.00 in 35.00 W/m2
06:25 62.6 °F 48.5 °F 29.90 in ESE 2.0 mph 11.0 mph 60% 0.00 in 40.00 W/m2
06:30 62.7 °F 48.6 °F 29.90 in Calm   11.0 mph 60% 0.00 in 49.00 W/m2
06:35 62.6 °F 48.1 °F 29.90 in East 8.0 mph 9.0 mph 59% 0.00 in 60.00 W/m2
06:40 62.6 °F 48.5 °F 29.89 in ESE 7.0 mph 11.0 mph 60% 0.00 in 69.00 W/m2
06:46 62.7 °F 48.6 °F 29.89 in East 2.0 mph 11.0 mph 60% 0.00 in 76.00 W/m2
06:51 62.6 °F 48.5 °F 29.89 in Calm   11.0 mph 60% 0.00 in 81.00 W/m2
06:56 62.6 °F 49.0 °F 29.89 in ESE 2.0 mph 11.0 mph 61% 0.00 in 86.00 W/m2
07:01 62.7 °F 49.1 °F 29.90 in Calm   11.0 mph 61% 0.00 in 91.00 W/m2
07:06 62.7 °F 49.1 °F 29.90 in ESE 1.0 mph 12.0 mph 61% 0.00 in 100.00 W/m2
07:10 62.7 °F 49.1 °F 29.90 in ESE 6.0 mph 11.0 mph 61% 0.00 in 121.00 W/m2
07:16 62.7 °F 49.5 °F 29.90 in ESE 6.0 mph 11.0 mph 62% 0.00 in 116.00 W/m2
07:21 62.7 °F 49.5 °F 29.90 in ESE 6.0 mph 9.0 mph 62% 0.00 in 116.00 W/m2
07:26 62.8 °F 49.6 °F 29.90 in ESE 11.0 mph 11.0 mph 62% 0.00 in 130.00 W/m2
07:31 62.8 °F 49.6 °F 29.90 in East 1.0 mph 11.0 mph 62% 0.00 in 137.00 W/m2
07:36 62.9 °F 50.1 °F 29.90 in Calm   11.0 mph 63% 0.00 in 137.00 W/m2
07:41 62.9 °F 49.7 °F 29.91 in East 1.0 mph 9.0 mph 62% 0.00 in 128.00 W/m2
07:46 63.0 °F 50.7 °F 29.90 in Calm   9.0 mph 64% 0.00 in 137.00 W/m2
07:47 63.0 °F 50.2 °F 29.90 in East 6.0 mph 11.0 mph 63% 0.00 in 141.00 W/m2
07:52 63.0 °F 50.7 °F 29.90 in Calm   11.0 mph 64% 0.00 in 167.00 W/m2
07:57 63.1 °F 51.2 °F 29.90 in East 6.0 mph 8.0 mph 65% 0.00 in 211.00 W/m2
08:02 63.1 °F 50.3 °F 29.90 in East 8.0 mph 11.0 mph 63% 0.00 in 223.00 W/m2
08:07 63.2 °F 50.4 °F 29.89 in Calm   9.0 mph 63% 0.00 in 237.00 W/m2
08:12 63.3 °F 50.9 °F 29.89 in East 8.0 mph 11.0 mph 64% 0.00 in 248.00 W/m2
08:17 63.5 °F 51.1 °F 29.89 in ESE 7.0 mph 11.0 mph 64% 0.00 in 199.00 W/m2
08:22 63.6 °F 51.2 °F 29.89 in Calm   9.0 mph 64% 0.00 in 192.00 W/m2
08:27 63.8 °F 51.4 °F 29.89 in ESE 8.0 mph 13.0 mph 64% 0.00 in 193.00 W/m2
08:32 63.9 °F 50.6 °F 29.90 in ESE 6.0 mph 8.0 mph 62% 0.00 in 195.00 W/m2
08:38 64.0 °F 50.7 °F 29.90 in Calm   9.0 mph 62% 0.00 in 206.00 W/m2
08:43 64.1 °F 51.3 °F 29.89 in ESE 7.0 mph 9.0 mph 63% 0.00 in 200.00 W/m2
08:48 64.2 °F 51.4 °F 29.89 in Calm   13.0 mph 63% 0.00 in 225.00 W/m2
08:53 64.3 °F 51.5 °F 29.89 in Calm   13.0 mph 63% 0.00 in 223.00 W/m2
08:58 64.3 °F 51.9 °F 29.89 in ESE 6.0 mph 12.0 mph 64% 0.00 in 295.00 W/m2
09:03 64.4 °F 52.0 °F 29.89 in ESE 6.0 mph 9.0 mph 64% 0.00 in 404.00 W/m2
09:08 64.4 °F 51.5 °F 29.89 in Calm   7.0 mph 63% 0.00 in 274.00 W/m2
09:13 64.5 °F 51.6 °F 29.89 in ESE 1.0 mph 8.0 mph 63% 0.00 in 239.00 W/m2
09:18 64.7 °F 51.4 °F 29.89 in ESE 5.0 mph 7.0 mph 62% 0.00 in 267.00 W/m2
09:23 64.8 °F 51.5 °F 29.89 in Calm   1.0 mph 62% 0.00 in 559.00 W/m2
09:28 65.0 °F 51.7 °F 29.89 in ESE 4.0 mph 6.0 mph 62% 0.00 in 598.00 W/m2
09:33 65.2 °F 52.7 °F 29.89 in Calm   6.0 mph 64% 0.00 in 777.00 W/m2
09:38 65.5 °F 53.4 °F 29.89 in ESE 4.0 mph 4.0 mph 65% 0.00 in 696.00 W/m2
09:43 65.9 °F 54.2 °F 29.89 in Calm   8.0 mph 66% 0.00 in 663.00 W/m2
09:48 66.2 °F 52.4 °F 29.89 in ESE 2.0 mph 7.0 mph 61% 0.00 in 884.00 W/m2
09:53 66.6 °F 51.4 °F 29.88 in ESE 4.0 mph 8.0 mph 58% 0.00 in 816.00 W/m2
09:58 67.2 °F 52.4 °F 29.89 in ESE 6.0 mph 8.0 mph 59% 0.00 in 816.00 W/m2
10:03 67.7 °F 51.9 °F 29.89 in SE 6.0 mph 7.0 mph 57% 0.00 in 835.00 W/m2
10:08 68.5 °F 54.1 °F 29.89 in Calm     60% 0.00 in 647.00 W/m2
10:13 69.2 °F 51.4 °F 29.89 in Calm   4.0 mph 53% 0.00 in 527.00 W/m2
10:18 69.8 °F 53.4 °F 29.89 in Calm   5.0 mph 56% 0.00 in 381.00 W/m2
10:23 70.4 °F 54.0 °F 29.89 in SSE 4.0 mph 7.0 mph 56% 0.00 in 889.00 W/m2
10:27 70.7 °F 54.2 °F 29.89 in Calm     56% 0.00 in 258.00 W/m2
10:32 71.2 °F 54.2 °F 29.89 in Calm   5.0 mph 55% 0.00 in 918.00 W/m2
10:37 71.6 °F 54.6 °F 29.89 in South 3.0 mph 3.0 mph 55% 0.00 in 712.00 W/m2
10:42 72.0 °F 53.4 °F 29.90 in SSW 3.0 mph 6.0 mph 52% 0.00 in 663.00 W/m2
10:47 72.3 °F 53.7 °F 29.90 in SSW 7.0 mph 7.0 mph 52% 0.00 in 879.00 W/m2
10:52 72.6 °F 52.9 °F 29.90 in SW 4.0 mph 5.0 mph 50% 0.00 in 909.00 W/m2
10:57 73.0 °F 52.7 °F 29.90 in Calm     49% 0.00 in 926.00 W/m2
11:02 73.3 °F 51.3 °F 29.90 in SW 4.0 mph 5.0 mph 46% 0.00 in 942.00 W/m2
11:07 73.6 °F 51.6 °F 29.90 in SSW 4.0 mph 6.0 mph 46% 0.00 in 867.00 W/m2
11:12 73.8 °F 50.5 °F 29.90 in SSW 6.0 mph 9.0 mph 44% 0.00 in 962.00 W/m2
11:17 74.2 °F 51.5 °F 29.90 in Calm   5.0 mph 45% 0.00 in 953.00 W/m2
11:22 74.5 °F 52.4 °F 29.90 in WSW 5.0 mph 5.0 mph 46% 0.00 in 990.00 W/m2
11:27 74.8 °F 51.5 °F 29.90 in SW 9.0 mph 10.0 mph 44% 0.00 in 838.00 W/m2
11:32 75.1 °F 52.3 °F 29.90 in WSW 1.0 mph 10.0 mph 45% 0.00 in 1053.00 W/m2
11:37 75.4 °F 53.2 °F 29.90 in WSW 5.0 mph 11.0 mph 46% 0.00 in 1092.00 W/m2
11:42 75.7 °F 54.1 °F 29.91 in WSW 1.0 mph 7.0 mph 47% 0.00 in 905.00 W/m2
11:43 75.7 °F 52.9 °F 29.91 in Calm   7.0 mph 45% 0.00 in 677.00 W/m2
11:48 75.7 °F 54.1 °F 29.91 in Calm   5.0 mph 47% 0.00 in 1130.00 W/m2
11:53 75.9 °F 53.7 °F 29.91 in WSW 7.0 mph 8.0 mph 46% 0.00 in 538.00 W/m2
11:58 76.1 °F 54.4 °F 29.91 in SW 2.0 mph 9.0 mph 47% 0.00 in 538.00 W/m2
12:04 76.1 °F 53.8 °F 29.90 in WSW 3.0 mph 8.0 mph 46% 0.00 in 415.00 W/m2
12:09 76.1 °F 55.0 °F 29.91 in WSW 4.0 mph 9.0 mph 48% 0.00 in 371.00 W/m2
12:14 76.1 °F 55.0 °F 29.91 in WSW 4.0 mph 6.0 mph 48% 0.00 in 431.00 W/m2
12:19 75.9 °F 54.8 °F 29.91 in Calm   3.0 mph 48% 0.00 in 847.00 W/m2
12:25 75.6 °F 55.1 °F 29.91 in Calm   8.0 mph 49% 0.00 in 501.00 W/m2
12:30 75.5 °F 55.6 °F 29.91 in WSW 4.0 mph 8.0 mph 50% 0.00 in 872.00 W/m2
12:35 75.6 °F 56.8 °F 29.91 in Calm   8.0 mph 52% 0.00 in 877.00 W/m2
12:40 75.8 °F 56.9 °F 29.90 in Calm   1.0 mph 52% 0.00 in 754.00 W/m2
12:45 76.1 °F 57.2 °F 29.90 in Calm   6.0 mph 52% 0.00 in 485.00 W/m2
12:50 76.3 °F 57.9 °F 29.90 in Calm   6.0 mph 53% 0.00 in 740.00 W/m2
12:55 76.4 °F 54.7 °F 29.90 in WSW 2.0 mph 3.0 mph 47% 0.00 in 497.00 W/m2
13:00 76.5 °F 55.9 °F 29.90 in Calm   4.0 mph 49% 0.00 in 438.00 W/m2
13:05 76.5 °F 55.9 °F 29.90 in SW 6.0 mph 6.0 mph 49% 0.00 in 492.00 W/m2
13:10 76.5 °F 57.0 °F 29.90 in Calm   6.0 mph 51% 0.00 in 582.00 W/m2
13:15 76.5 °F 56.5 °F 29.90 in Calm   2.0 mph 50% 0.00 in 538.00 W/m2
13:20 76.6 °F 55.5 °F 29.90 in Calm   4.0 mph 48% 0.00 in 578.00 W/m2
13:25 76.7 °F 55.0 °F 29.90 in Calm   1.0 mph 47% 0.00 in 591.00 W/m2
13:30 76.7 °F 55.5 °F 29.90 in Calm   6.0 mph 48% 0.00 in 640.00 W/m2
13:35 76.7 °F 53.8 °F 29.90 in SSW 4.0 mph 6.0 mph 45% 0.00 in 591.00 W/m2
13:40 76.7 °F 55.0 °F 29.90 in Calm   8.0 mph 47% 0.00 in 606.00 W/m2
13:45 76.8 °F 56.2 °F 29.90 in Calm     49% 0.00 in 603.00 W/m2
13:50 76.5 °F 56.5 °F 29.90 in Calm   3.0 mph 50% 0.00 in 531.00 W/m2
13:55 76.4 °F 56.4 °F 29.90 in Calm     50% 0.00 in 501.00 W/m2
14:00 76.4 °F 56.4 °F 29.90 in Calm   1.0 mph 50% 0.00 in 515.00 W/m2
14:05 76.3 °F 56.9 °F 29.90 in Calm   9.0 mph 51% 0.00 in 577.00 W/m2
14:10 76.1 °F 56.1 °F 29.90 in SW 5.0 mph 6.0 mph 50% 0.00 in 615.00 W/m2
14:15 76.1 °F 56.1 °F 29.90 in SW 3.0 mph 7.0 mph 50% 0.00 in 661.00 W/m2
14:20 75.9 °F 56.0 °F 29.90 in Calm   8.0 mph 50% 0.00 in 415.00 W/m2
14:25 75.8 °F 56.4 °F 29.90 in Calm   7.0 mph 51% 0.00 in 468.00 W/m2
14:30 75.8 °F 57.5 °F 29.90 in WSW 4.0 mph 6.0 mph 53% 0.00 in 446.00 W/m2
14:35 75.8 °F 57.5 °F 29.90 in Calm   6.0 mph 53% 0.00 in 478.00 W/m2
14:40 75.8 °F 58.0 °F 29.90 in Calm   3.0 mph 54% 0.00 in 997.00 W/m2
14:45 76.0 °F 55.5 °F 29.90 in SSW 6.0 mph 7.0 mph 49% 0.00 in 930.00 W/m2
14:50 76.2 °F 55.1 °F 29.89 in Calm   8.0 mph 48% 0.00 in 891.00 W/m2
14:55 76.5 °F 54.8 °F 29.89 in Calm   9.0 mph 47% 0.00 in 870.00 W/m2
15:00 76.8 °F 56.2 °F 29.88 in Calm   11.0 mph 49% 0.00 in 856.00 W/m2
15:05 77.0 °F 55.8 °F 29.89 in Calm   5.0 mph 48% 0.00 in 842.00 W/m2
15:10 77.3 °F 55.5 °F 29.89 in Calm   7.0 mph 47% 0.00 in 830.00 W/m2
15:15 77.5 °F 53.9 °F 29.89 in Calm   10.0 mph 44% 0.00 in 816.00 W/m2
15:20 77.7 °F 53.5 °F 29.89 in Calm   9.0 mph 43% 0.00 in 805.00 W/m2
15:25 77.9 °F 53.6 °F 29.89 in SSW 5.0 mph 13.0 mph 43% 0.00 in 795.00 W/m2
15:30 78.2 °F 53.2 °F 29.88 in Calm   10.0 mph 42% 0.00 in 784.00 W/m2
15:35 78.3 °F 53.3 °F 29.88 in SW 7.0 mph 14.0 mph 42% 0.00 in 770.00 W/m2
15:40 78.4 °F 53.4 °F 29.88 in WSW 6.0 mph 11.0 mph 42% 0.00 in 759.00 W/m2
15:45 78.5 °F 54.8 °F 29.88 in SSW 7.0 mph 11.0 mph 44% 0.00 in 749.00 W/m2
15:50 78.6 °F 53.0 °F 29.88 in SSW 7.0 mph 12.0 mph 41% 0.00 in 740.00 W/m2
15:56 78.7 °F 53.0 °F 29.88 in Calm   7.0 mph 41% 0.00 in 728.00 W/m2
16:00 78.7 °F 53.7 °F 29.88 in SW 8.0 mph 12.0 mph 42% 0.00 in 714.00 W/m2
16:06 78.7 °F 53.0 °F 29.88 in WSW 7.0 mph 11.0 mph 41% 0.00 in 701.00 W/m2
16:11 78.7 °F 53.7 °F 29.88 in SSW 10.0 mph 10.0 mph 42% 0.00 in 686.00 W/m2
16:16 78.7 °F 53.0 °F 29.88 in SW 5.0 mph 10.0 mph 41% 0.00 in 671.00 W/m2
16:21 78.7 °F 54.3 °F 29.87 in Calm   1.0 mph 43% 0.00 in 664.00 W/m2
16:26 78.8 °F 54.4 °F 29.87 in SSW 5.0 mph 10.0 mph 43% 0.00 in 650.00 W/m2
16:31 78.8 °F 54.4 °F 29.88 in SSW 5.0 mph 7.0 mph 43% 0.00 in 638.00 W/m2
16:36 78.8 °F 55.1 °F 29.88 in SW 7.0 mph 7.0 mph 44% 0.00 in 624.00 W/m2
16:41 78.8 °F 52.5 °F 29.87 in SW 7.0 mph 7.0 mph 40% 0.00 in 608.00 W/m2
16:46 78.8 °F 52.5 °F 29.87 in Calm     40% 0.00 in 596.00 W/m2
16:51 78.7 °F 52.4 °F 29.87 in Calm   7.0 mph 40% 0.00 in 582.00 W/m2
16:56 78.6 °F 52.3 °F 29.87 in Calm     40% 0.00 in 566.00 W/m2
16:59 78.6 °F 53.6 °F 29.87 in SW 5.0 mph 9.0 mph 42% 0.00 in 557.00 W/m2
17:04 78.5 °F 53.5 °F 29.87 in Calm   7.0 mph 42% 0.00 in 543.00 W/m2
17:09 78.5 °F 54.2 °F 29.86 in Calm   2.0 mph 43% 0.00 in 533.00 W/m2
17:14 78.4 °F 53.4 °F 29.87 in Calm   9.0 mph 42% 0.00 in 513.00 W/m2
17:19 78.4 °F 54.1 °F 29.87 in Calm   9.0 mph 43% 0.00 in 497.00 W/m2
17:24 78.4 °F 54.1 °F 29.86 in WSW 4.0 mph 5.0 mph 43% 0.00 in 483.00 W/m2
17:29 78.3 °F 54.6 °F 29.86 in WSW 1.0 mph 2.0 mph 44% 0.00 in 468.00 W/m2
17:34 78.2 °F 53.9 °F 29.86 in Calm   6.0 mph 43% 0.00 in 454.00 W/m2
17:39 78.1 °F 51.8 °F 29.86 in Calm   1.0 mph 40% 0.00 in 441.00 W/m2
17:44 78.0 °F 51.8 °F 29.86 in Calm   8.0 mph 40% 0.00 in 422.00 W/m2
17:49 78.0 °F 51.8 °F 29.86 in WSW 3.0 mph 8.0 mph 40% 0.00 in 408.00 W/m2
17:54 77.8 °F 50.9 °F 29.86 in Calm   8.0 mph 39% 0.00 in 392.00 W/m2
17:59 77.6 °F 50.7 °F 29.86 in Calm   6.0 mph 39% 0.00 in 374.00 W/m2
18:04 77.5 °F 51.3 °F 29.86 in WSW 4.0 mph 8.0 mph 40% 0.00 in 359.00 W/m2
18:09 77.4 °F 51.2 °F 29.86 in Calm   6.0 mph 40% 0.00 in 343.00 W/m2
18:14 77.3 °F 51.1 °F 29.86 in Calm   3.0 mph 40% 0.00 in 325.00 W/m2
18:19 77.2 °F 51.7 °F 29.86 in WSW 6.0 mph 7.0 mph 41% 0.00 in 309.00 W/m2
18:24 77.0 °F 50.9 °F 29.86 in Calm   5.0 mph 40% 0.00 in 294.00 W/m2
18:29 76.9 °F 52.7 °F 29.86 in Calm     43% 0.00 in 279.00 W/m2
18:34 76.8 °F 52.6 °F 29.86 in Calm   6.0 mph 43% 0.00 in 264.00 W/m2
18:39 76.6 °F 50.5 °F 29.86 in Calm   6.0 mph 40% 0.00 in 248.00 W/m2
18:44 76.4 °F 51.0 °F 29.86 in Calm   3.0 mph 41% 0.00 in 232.00 W/m2
18:49 76.2 °F 48.8 °F 29.86 in Calm   6.0 mph 38% 0.00 in 216.00 W/m2
18:55 76.1 °F 52.0 °F 29.86 in Calm   4.0 mph 43% 0.00 in 200.00 W/m2
19:00 75.9 °F 51.2 °F 29.86 in WSW 1.0 mph 1.0 mph 42% 0.00 in 188.00 W/m2
19:05 75.7 °F 51.0 °F 29.86 in Calm   1.0 mph 42% 0.00 in 167.00 W/m2
19:10 75.5 °F 51.5 °F 29.86 in WSW 2.0 mph 3.0 mph 43% 0.00 in 148.00 W/m2
19:15 75.2 °F 51.2 °F 29.86 in Calm   1.0 mph 43% 0.00 in 132.00 W/m2
19:20 74.9 °F 50.9 °F 29.86 in Calm     43% 0.00 in 113.00 W/m2
19:25 74.6 °F 51.3 °F 29.86 in Calm     44% 0.00 in 95.00 W/m2
19:30 74.2 °F 50.9 °F 29.86 in Calm     44% 0.00 in 79.00 W/m2
19:35 73.8 °F 50.5 °F 29.86 in Calm     44% 0.00 in 63.00 W/m2
19:40 73.4 °F 51.4 °F 29.86 in Calm     46% 0.00 in 51.00 W/m2
19:45 73.0 °F 52.7 °F 29.87 in Calm     49% 0.00 in 39.00 W/m2
19:50 72.6 °F 51.8 °F 29.87 in Calm     48% 0.00 in 30.00 W/m2
19:55 72.2 °F 52.0 °F 29.87 in Calm     49% 0.00 in 21.00 W/m2
20:00 71.7 °F 51.5 °F 29.87 in Calm     49% 0.00 in 16.00 W/m2
20:05 71.3 °F 51.2 °F 29.87 in Calm     49% 0.00 in 14.00 W/m2
20:10 70.9 °F 50.2 °F 29.87 in Calm     48% 0.00 in 12.00 W/m2
20:15 70.6 °F 51.1 °F 29.87 in Calm     50% 0.00 in 11.00 W/m2
20:20 70.1 °F 50.6 °F 29.87 in Calm     50% 0.00 in 7.00 W/m2
20:25 69.8 °F 49.8 °F 29.87 in Calm     49% 0.00 in 5.00 W/m2
20:30 69.4 °F 50.0 °F 29.87 in Calm     50% 0.00 in 0.00 W/m2
20:35 69.0 °F 49.1 °F 29.87 in Calm     49% 0.00 in 0.00 W/m2
20:40 68.6 °F 49.2 °F 29.87 in Calm     50% 0.00 in 0.00 W/m2
20:45 68.3 °F 49.0 °F 29.87 in Calm   1.0 mph 50% 0.00 in 0.00 W/m2
20:50 67.9 °F 48.6 °F 29.87 in Calm     50% 0.00 in 0.00 W/m2
20:55 67.6 °F 48.3 °F 29.87 in Calm   1.0 mph 50% 0.00 in 0.00 W/m2
21:00 67.3 °F 48.0 °F 29.87 in Calm     50% 0.00 in 0.00 W/m2
21:05 67.1 °F 48.9 °F 29.87 in Calm   3.0 mph 52% 0.00 in 0.00 W/m2
21:10 66.9 °F 48.7 °F 29.87 in Calm   3.0 mph 52% 0.00 in 0.00 W/m2
21:15 66.7 °F 48.0 °F 29.87 in Calm   3.0 mph 51% 0.00 in 0.00 W/m2
21:20 66.5 °F 47.8 °F 29.87 in Calm     51% 0.00 in 0.00 W/m2
21:25 66.4 °F 48.3 °F 29.87 in Calm   4.0 mph 52% 0.00 in 0.00 W/m2
21:30 66.3 °F 48.7 °F 29.87 in Calm   2.0 mph 53% 0.00 in 0.00 W/m2
21:35 66.1 °F 48.0 °F 29.88 in SW 1.0 mph 3.0 mph 52% 0.00 in 0.00 W/m2
21:40 66.0 °F 47.9 °F 29.88 in Calm   4.0 mph 52% 0.00 in 0.00 W/m2
21:45 65.9 °F 48.8 °F 29.88 in Calm   1.0 mph 54% 0.00 in 0.00 W/m2
21:50 65.8 °F 48.2 °F 29.88 in Calm   1.0 mph 53% 0.00 in 0.00 W/m2
21:54 65.7 °F 49.1 °F 29.88 in Calm   4.0 mph 55% 0.00 in 0.00 W/m2
21:59 65.6 °F 48.5 °F 29.88 in Calm   1.0 mph 54% 0.00 in 0.00 W/m2
22:04 65.5 °F 48.4 °F 29.88 in Calm   4.0 mph 54% 0.00 in 0.00 W/m2
22:09 65.5 °F 48.9 °F 29.88 in SSW 1.0 mph 3.0 mph 55% 0.00 in 0.00 W/m2
22:14 65.4 °F 48.8 °F 29.88 in Calm   3.0 mph 55% 0.00 in 0.00 W/m2
22:19 65.4 °F 48.8 °F 29.88 in South 3.0 mph 5.0 mph 55% 0.00 in 0.00 W/m2
22:24 65.4 °F 48.8 °F 29.88 in South 6.0 mph 6.0 mph 55% 0.00 in 0.00 W/m2
22:29 65.3 °F 48.7 °F 29.88 in SSE 1.0 mph 5.0 mph 55% 0.00 in 0.00 W/m2
22:34 65.2 °F 49.1 °F 29.88 in SSE 2.0 mph 6.0 mph 56% 0.00 in 0.00 W/m2
22:39 65.2 °F 49.6 °F 29.87 in SE 2.0 mph 8.0 mph 57% 0.00 in 0.00 W/m2
22:44 65.2 °F 49.6 °F 29.87 in Calm   7.0 mph 57% 0.00 in 0.00 W/m2
22:49 65.1 °F 49.5 °F 29.87 in Calm   9.0 mph 57% 0.00 in 0.00 W/m2
22:54 65.1 °F 49.5 °F 29.87 in ESE 2.0 mph 8.0 mph 57% 0.00 in 0.00 W/m2
22:59 65.1 °F 50.0 °F 29.87 in ESE 5.0 mph 9.0 mph 58% 0.00 in 0.00 W/m2
23:04 65.1 °F 50.0 °F 29.87 in ESE 2.0 mph 8.0 mph 58% 0.00 in 0.00 W/m2
23:09 65.0 °F 49.9 °F 29.87 in Calm   12.0 mph 58% 0.00 in 0.00 W/m2
23:14 65.0 °F 49.9 °F 29.87 in East 4.0 mph 14.0 mph 58% 0.00 in 0.00 W/m2
23:19 65.0 °F 50.3 °F 29.87 in ESE 6.0 mph 11.0 mph 59% 0.00 in 0.00 W/m2
23:24 65.0 °F 50.3 °F 29.87 in ESE 5.0 mph 9.0 mph 59% 0.00 in 0.00 W/m2
23:29 65.0 °F 50.3 °F 29.87 in ESE 4.0 mph 11.0 mph 59% 0.00 in 0.00 W/m2
23:34 64.9 °F 50.2 °F 29.86 in ESE 2.0 mph 13.0 mph 59% 0.00 in 0.00 W/m2
23:40 64.9 °F 50.7 °F 29.86 in ESE 1.0 mph 11.0 mph 60% 0.00 in 0.00 W/m2
23:45 64.8 °F 50.6 °F 29.86 in ESE 1.0 mph 12.0 mph 60% 0.00 in 0.00 W/m2
23:50 64.8 °F 50.6 °F 29.86 in ESE 8.0 mph 9.0 mph 60% 0.00 in 0.00 W/m2
23:55 64.7 °F 51.0 °F 29.86 in ESE 5.0 mph 9.0 mph 61% 0.00 in 0.00 W/m2
Foresthill Weather
 WU-history PHP script courtesy of   Juneau County Weather.
powered by Cumulus v1.9.3 (1059)
Ambient Weather VWS v14.00
Top Contact Website Map Copyright © 2007 - 2018 Foresthillweather.com Never base important decisions on this or any weather information obtained from the Internet